KUIPER-00180

导读

KUIPER-00180是亚马逊柯伊伯卫星互联网项目下的一颗低轨卫星,于2026年2月12日由法国发射。柯伊伯项目旨在通过数千颗低轨卫星,为全球尤其是偏远地区提供高速低延迟、价格可负担的互联网接入,与星链类似。KUIPER-00180的成功发射是该项目星座部署的重要一步,将助力构建全球覆盖的卫星互联网基础设施,推动互联网接入普惠性发展。

基本信息
目录编号:
67768
目录名称:
KUIPER-00180
国际标识:
2026-030E
轨道中心:
EARTH
卫星名称:
KUIPER-00180
卫星全名:
KUIPER-00180
卫星状态:
在轨 (已飞行124 天)
发射日期:
2026-02-12 UTC
国别 :
美国 (US)
星等 :
--
轨道信息
数据来源 国际轨道数据 AOE轨道数据
星历时间 2026-06-16T12:23:56+0800
9小时前
查看轨道信息
2026-06-15T05:00:00+0800
1天前
查看轨道信息
半长轴 7007.69km 7007.642km
偏心率 0.0000709 0.0000691
轨道倾角 51.899° 51.897°
近地点辐角 72.813° 69.199°
升交点赤经 132.576° 138.363°
平近点角 287.291° 156.504°
近地点 629.056km 629.02km
远地点 630.05km 629.99km
周期 97.302分钟 97.301分钟
每日圈数 14.799276 14.79943
详细信息
使用方式:
暂无
2D轨道图
3D轨道图
轨道高度分析图
轨道倾角分析图
轨道综合分析图
查看轨道综合分析图